sat.trackr.live / text

‹ back to catalog

STARLINK-33951

NORAD 63803 · 2025-091AD

PAYLOAD ACTIVE UNKNOWN

§ Identity

Operator
Country
US
Launch date
2025-05-02
Launch site
AFETR
Launch vehicle
Mass (kg)
RCS (m²)

Purposes: comms

External: N2YO · Heavens-Above · Gunter

§ Orbital elements

Epoch: 2026-09-20T15:55:32.708928Z

Period
94.27 min
Inclination
43.0043°
Eccentricity
0.0000875
Mean motion
15.27591303 rev/d
Perigee alt
482.4 km
Apogee alt
483.6 km
Semi-major
6,861.2 km
B*
5.5830e-4
RAAN
31.1769°
Arg perigee
280.1853°
Mean anomaly
79.8900°
Rev number
7,877

§ Raw data

STARLINK-339511 63803U 25091AD  26263.66357302  .00015138  00000+0  55830-3 0  99992 63803  43.0043  31.1769 0000875 280.1853  79.8900 15.27591303 78778

JSON: /api/v1/satellites/63803 · /tle

For live sub-satellite position, see the globe view (requires WebGL).

§ Visibility from observer

Set your observer location to see the next 7 days of passes ≥ 10°. The values pass through the URL so the page stays shareable.

No JS? Fill the form by hand. The geolocation button needs JavaScript.